Location: Newark
(40.7060°N, 73.9980°W)
Time: 22:35:37
(UTC+00:00)

N. Korean satellite - Pass Details

Date: 20 November 2019
Orbit: 455 x 506 km, 97.2° (Epoch: 10 December)

Event Time Altitude Azimuth Distance (km) Brightness Sun altitude
Rises 22:34:21 0° 189° (S) 2,553 10.6 -11.4°
Reaches altitude 10° 22:36:34 10° 200° (SSW) 1,685 9.8 -11.8°
Maximum altitude 22:39:48 30° 264° (W) 911 8.8 -12.4°
Drops below altitude 10° 22:43:07 10° 327° (NNW) 1,718 9.6 -13.0°
Sets 22:45:24 0° 338° (NNW) 2,612 10.4 -13.4°
